Weather History for Auburn-Lewiston, ME

Change the Weather History Date:

Wednesday, February 13, 2013

  Actual Average Record
Temperature  
Mean Temperature 32 °F -  
Max Temperature 39 °F 29 °F 44 °F (1999)
Min Temperature 24 °F 11 °F -7 °F (2000)
Degree Days  
Heating Degree Days 34    
Moisture  
Dew Point 21 °F    
Average Humidity 62    
Maximum Humidity 86    
Minimum Humidity 42    
Precipitation  
Precipitation 0.00 in - - ()
Sea Level Pressure  
Sea Level Pressure 29.76 in    
Wind  
Wind Speed 3 mph (NW)    
Max Wind Speed 13 mph    
Max Gust Speed 18 mph    
Visibility 10 miles    
Events      
Averages and records for this station are not official NWS values.
T = Trace of Precipitation, MM = Missing Value Source: NWS Daily Summary

Daily Weather History Graph

Daily Weather History Graph

Search for Another Location

Airport:

Trip Planner

Search our weather history database for the weather conditions in past years. The results will help you decide how hot, cold, wet, or windy it might be!

Date:

Astronomy

Feb. 13, 2013 Rise Set
Actual Time 6:42 AM EST 5:08 PM EST
Civil Twilight 6:13 AM EST 5:38 PM EST
Nautical Twilight 5:39 AM EST 6:12 PM EST
Astronomical Twilight 5:05 AM EST 6:45 PM EST
Moon 8:00 AM EST (2/13) 9:18 PM EST (2/13)
Length of Visible Light 11h 24m
Length of Day
10h 25m
Waxing Crescent, 13% of the Moon is Illuminated
Feb 13
Waxing Crescent
Feb 17
First Quarter
Feb 25
Full
Mar 4
Last Quarter
Mar 11
New

Hourly Weather History & Observations

Time (EST) Temp. Windchill Dew Point Humidity Pressure Visibility Wind Dir Wind Speed Gust Speed Precip Events Conditions
12:15 AM 33.8 °F - 24.8 °F 70% 29.74 in 10.0 mi Calm Calm - N/A   Overcast
12:35 AM 33.8 °F 30.8 °F 24.8 °F 70% 29.73 in 10.0 mi WNW 3.5 mph - N/A   Mostly Cloudy
12:55 AM 33.8 °F - 24.8 °F 70% 29.74 in 10.0 mi Calm Calm - N/A   Partly Cloudy
1:15 AM 33.8 °F 30.8 °F 24.8 °F 70% 29.75 in 10.0 mi SSW 3.5 mph - N/A   Scattered Clouds
1:35 AM 30.2 °F 25.4 °F 23.0 °F 75% 29.75 in 10.0 mi West 4.6 mph - N/A   Mostly Cloudy
1:55 AM 32.0 °F 27.5 °F 23.0 °F 69% 29.75 in 10.0 mi WSW 4.6 mph - N/A   Scattered Clouds
2:15 AM 32.0 °F 28.7 °F 23.0 °F 69% 29.75 in 10.0 mi West 3.5 mph - N/A   Overcast
2:35 AM 30.2 °F - 21.2 °F 69% 29.75 in 10.0 mi Calm Calm - N/A   Scattered Clouds
2:55 AM 30.2 °F - 23.0 °F 75% 29.75 in 10.0 mi Calm Calm - N/A   Clear
3:15 AM 30.2 °F - 23.0 °F 75% 29.75 in 10.0 mi Calm Calm - N/A   Clear
3:35 AM 26.6 °F 21.2 °F 19.4 °F 74% 29.76 in 10.0 mi North 4.6 mph - N/A   Clear
3:55 AM 24.8 °F - 19.4 °F 80% 29.76 in 10.0 mi Calm Calm - N/A   Clear
4:15 AM 26.6 °F - 23.0 °F 86% 29.76 in 10.0 mi Calm Calm - N/A   Clear
4:35 AM 28.4 °F - 21.2 °F 74% 29.76 in 10.0 mi Calm Calm - N/A   Clear
4:55 AM 28.4 °F 21.2 °F 21.2 °F 74% 29.76 in 10.0 mi NNW 6.9 mph - N/A   Partly Cloudy
5:15 AM 30.2 °F 23.4 °F 21.2 °F 69% 29.77 in 10.0 mi NNW 6.9 mph - N/A   Mostly Cloudy
5:35 AM 32.0 °F 27.5 °F 19.4 °F 60% 29.77 in 10.0 mi NNW 4.6 mph - N/A   Overcast
5:55 AM 30.2 °F 26.7 °F 19.4 °F 64% 29.77 in 10.0 mi NW 3.5 mph - N/A   Scattered Clouds
6:15 AM 30.2 °F 26.7 °F 19.4 °F 64% 29.77 in 10.0 mi North 3.5 mph - N/A   Clear
6:35 AM 26.6 °F - 19.4 °F 74% 29.77 in 10.0 mi Calm Calm - N/A   Clear
6:55 AM 28.4 °F 24.6 °F 21.2 °F 74% 29.78 in 10.0 mi SSW 3.5 mph - N/A   Clear
7:15 AM 28.4 °F - 21.2 °F 74% 29.78 in 10.0 mi Calm Calm - N/A   Clear
7:35 AM 28.4 °F - 19.4 °F 69% 29.79 in 10.0 mi Calm Calm - N/A   Clear
7:55 AM 26.6 °F 22.6 °F 19.4 °F 74% 29.79 in 10.0 mi SW 3.5 mph - N/A   Clear
8:15 AM 30.2 °F 26.7 °F 19.4 °F 64% 29.79 in 10.0 mi West 3.5 mph - N/A   Clear
8:35 AM 30.2 °F 25.4 °F 19.4 °F 64% 29.80 in 10.0 mi SW 4.6 mph - N/A   Clear
8:55 AM 33.8 °F 29.6 °F 21.2 °F 60% 29.79 in 10.0 mi WNW 4.6 mph - N/A   Clear
9:15 AM 35.6 °F 29.9 °F 19.4 °F 52% 29.79 in 10.0 mi NW 6.9 mph - N/A   Clear
9:35 AM 35.6 °F 27.1 °F 19.4 °F 52% 29.80 in 10.0 mi NW 12.7 mph 18.4 mph N/A   Clear
9:55 AM 35.6 °F 27.5 °F 21.2 °F 56% 29.80 in 10.0 mi NW 11.5 mph - N/A   Partly Cloudy
10:15 AM 37.4 °F 29.3 °F 21.2 °F 52% 29.79 in 10.0 mi NW 12.7 mph 17.3 mph N/A   Clear
10:35 AM 37.4 °F 30.3 °F 19.4 °F 48% 29.79 in 10.0 mi NW 10.4 mph 17.3 mph N/A   Clear
10:55 AM 37.4 °F 30.3 °F 19.4 °F 48% 29.78 in 10.0 mi WNW 10.4 mph 16.1 mph N/A   Clear
11:15 AM 37.4 °F 29.8 °F 19.4 °F 48% 29.78 in 10.0 mi NW 11.5 mph - N/A   Clear
11:35 AM 37.4 °F 32.1 °F 19.4 °F 48% 29.77 in 10.0 mi WNW 6.9 mph - N/A   Clear
11:55 AM 37.4 °F 30.8 °F 21.2 °F 52% 29.76 in 10.0 mi NW 9.2 mph - N/A   Clear
12:15 PM 39.2 °F 33.0 °F 19.4 °F 45% 29.76 in 10.0 mi West 9.2 mph - N/A   Clear
12:35 PM 39.2 °F 37.0 °F 19.4 °F 45% 29.75 in 10.0 mi NW 3.5 mph - N/A   Clear
12:55 PM 39.2 °F 32.5 °F 19.4 °F 45% 29.75 in 10.0 mi NNW 10.4 mph - N/A   Clear
1:15 PM 39.2 °F 35.0 °F 19.4 °F 45% 29.76 in 10.0 mi NNW 5.8 mph - N/A   Scattered Clouds
1:35 PM 39.2 °F 35.9 °F 19.4 °F 45% 29.76 in 10.0 mi NNW 4.6 mph - N/A   Mostly Cloudy
1:55 PM 39.2 °F 32.0 °F 21.2 °F 49% 29.75 in 10.0 mi NNW 11.5 mph - N/A   Mostly Cloudy
2:15 PM 39.2 °F 34.2 °F 17.6 °F 42% 29.75 in 10.0 mi North 6.9 mph - N/A   Mostly Cloudy
2:35 PM 39.2 °F 37.0 °F 19.4 °F 45% 29.75 in 10.0 mi NNW 3.5 mph - N/A   Mostly Cloudy
2:55 PM 39.2 °F 35.0 °F 19.4 °F 45% 29.75 in 10.0 mi WNW 5.8 mph - N/A   Overcast
3:15 PM 39.2 °F 33.6 °F 19.4 °F 45% 29.75 in 10.0 mi NNW 8.1 mph - N/A   Overcast
3:35 PM 37.4 °F 32.8 °F 19.4 °F 48% 29.75 in 10.0 mi NNW 5.8 mph - N/A   Overcast
3:55 PM 37.4 °F 32.1 °F 19.4 °F 48% 29.74 in 10.0 mi NNW 6.9 mph - N/A   Overcast
4:15 PM 37.4 °F 31.4 °F 19.4 °F 48% 29.73 in 10.0 mi NNW 8.1 mph - N/A   Overcast
4:35 PM 37.4 °F 32.1 °F 19.4 °F 48% 29.73 in 10.0 mi NNW 6.9 mph - N/A   Overcast
4:55 PM 37.4 °F 32.8 °F 19.4 °F 48% 29.73 in 10.0 mi NNW 5.8 mph - N/A   Overcast
5:15 PM 37.4 °F 33.8 °F 19.4 °F 48% 29.73 in 10.0 mi NNW 4.6 mph - N/A   Overcast
5:35 PM 35.6 °F 29.2 °F 19.4 °F 52% 29.73 in 10.0 mi North 8.1 mph - N/A   Overcast
5:55 PM 35.6 °F - 19.4 °F 52% 29.75 in 10.0 mi Calm Calm - N/A   Overcast
6:15 PM 35.6 °F - 21.2 °F 56% 29.75 in 10.0 mi Calm Calm - N/A   Overcast
6:55 PM 33.8 °F - 23.0 °F 65% 29.75 in 10.0 mi Calm Calm - N/A   Overcast
7:15 PM 33.8 °F - 21.2 °F 60% 29.74 in 10.0 mi Calm Calm - N/A   Overcast
7:35 PM 33.8 °F - 21.2 °F 60% 29.75 in 10.0 mi Calm Calm - N/A   Overcast
7:56 PM 33.8 °F - 23.0 °F 65% 29.75 in 10.0 mi Calm Calm - N/A   Overcast
8:15 PM 32.0 °F - 23.0 °F 69% 29.75 in 10.0 mi Calm Calm - N/A   Overcast
8:35 PM 32.0 °F - 21.2 °F 64% 29.75 in 10.0 mi Calm Calm - N/A   Overcast
8:55 PM 32.0 °F - 23.0 °F 69% 29.75 in 10.0 mi Calm Calm - N/A   Overcast
9:15 PM 30.2 °F - 24.8 °F 80% - 10.0 mi Calm Calm - N/A   Overcast
9:35 PM 30.2 °F - 23.0 °F 75% 29.75 in 10.0 mi Calm Calm - N/A   Overcast
10:15 PM 30.2 °F - 24.8 °F 80% - 10.0 mi Calm Calm - N/A   Overcast
10:35 PM 30.2 °F - 23.0 °F 75% 29.76 in 10.0 mi Calm Calm - N/A   Overcast
10:55 PM 30.2 °F - 23.0 °F 75% 29.76 in 10.0 mi Calm Calm - N/A   Overcast
11:15 PM 30.2 °F - 23.0 °F 75% 29.75 in 10.0 mi Calm Calm - N/A   Overcast
11:35 PM 30.2 °F - 24.8 °F 80% 29.74 in 10.0 mi Calm Calm - N/A   Overcast
11:55 PM 30.2 °F - 24.8 °F 80% 29.73 in 10.0 mi Calm Calm - N/A   Overcast